EW2279 Weather Reports


time (UTC)temp
C
wind
direction
speed
KPH
gust
KPH
rain 1hr
cm
rain 24hr
cm
rain mn
cm
humidity
%
barometer
mb
20260906072109 20 135 0.0 0.0 0.00 0.00 0.00 98 1014.4
20260906071609 20 135 0.0 0.0 0.00 0.00 0.00 97 1014.4
20260906071009 20 135 0.0 0.0 0.00 0.00 0.00 97 1014.7
20260906065610 -17 0.0 0.0 0.00 0.00 0.00 1014.4
20260906063535 20 135 0.0 0.0 0.00 0.00 0.00 97 1014.7
20260906063027 20 135 0.0 0.0 0.00 0.00 0.00 97 1015.2
20260906062737 20 135 0.0 0.0 0.00 0.00 0.00 97 1015.2
20260906060707 -17 0.0 0.0 0.00 0.00 0.00 1015.5
20260906053940 20 135 0.0 0.0 0.00 0.00 0.00 96 1015.5
20260906053426 20 135 0.0 0.0 0.00 0.00 0.00 96 1015.5
20260906052906 21 135 0.0 0.0 0.00 0.00 0.00 96 1015.5
20260906051506 21 135 0.0 0.0 0.00 0.00 0.00 96 1015.9
20260906050836 21 135 0.0 0.0 0.00 0.00 0.00 96 1015.9
20260906045708 -17 0.0 0.0 0.00 0.00 0.00 1015.9
20260906043839 -17 0.0 0.0 0.00 0.00 0.00 1015.9
20260906041008 -17 0.0 0.0 0.00 0.00 0.00 1016.3
20260906034621 21 135 0.0 0.0 0.00 0.00 0.00 96 1015.9
20260906034105 -17 0.0 0.0 0.00 0.00 0.00 1016.3
20260906030604 21 135 0.0 0.0 0.00 0.00 0.00 95 1016.6
20260906025604 20 135 0.0 0.0 0.00 0.00 0.00 95 1016.3
20260906024706 20 135 0.0 0.0 0.00 0.00 0.00 95 1016.3
20260906024206 20 135 0.0 0.0 0.00 0.00 0.00 95 1016.3
20260906023534 20 112 0.0 0.0 0.00 0.00 0.00 95 1015.9
20260906023036 21 135 0.0 0.0 0.00 0.00 0.00 95 1015.9
20260906022438 21 135 0.0 0.0 0.00 0.00 0.00 95 1015.5
20260906022215 21 135 0.0 0.0 0.00 0.00 0.00 94 1015.9
20260906020443 21 135 0.0 0.0 0.00 0.00 0.00 93 1015.5
20260906015933 21 135 0.0 0.0 0.00 0.00 0.00 93 1015.5
20260906015232 21 135 0.0 0.0 0.00 0.00 0.00 93 1015.5
20260906014604 21 135 0.0 0.0 0.00 0.00 0.00 93 1015.5
20260906013638 21 135 0.0 0.0 0.00 0.00 0.00 93 1015.5
20260906013133 21 135 0.0 0.0 0.00 0.00 0.00 93 1015.2
20260906012907 21 135 0.0 0.0 0.00 0.00 0.00 92 1015.2
20260906011004 -17 0.0 0.0 0.00 0.00 0.00 1015.2
20260906005402 21 135 0.0 0.0 0.00 0.00 0.00 92 1015.2
20260906004400 21 135 0.0 0.0 0.00 0.00 0.00 92 1015.5
20260906003853 21 135 0.0 0.0 0.00 0.00 0.00 91 1015.2
20260906003350 22 135 0.0 0.0 0.00 0.00 0.00 90 1015.2
20260906002834 22 135 0.0 0.0 0.00 0.00 0.00 89 1014.7
20260906002220 22 135 0.0 0.0 0.00 0.00 0.00 89 1015.2
20260906001702 22 135 0.0 0.0 0.00 0.00 0.00 88 1015.2
20260906001202 22 135 0.0 0.0 0.00 0.00 0.00 88 1015.2
20260906000703 22 135 0.0 0.0 0.00 0.00 0.00 88 1015.2
20260906000047 22 135 0.0 0.0 0.00 0.00 0.00 88 1014.7
20260905235533 -17 0.0 0.0 0.00 0.00 0.00 1014.7
20260905232832 23 135 0.0 0.0 0.00 0.00 0.00 85 1014.4
20260905232101 -17 0.0 0.0 0.00 0.00 0.00 1014.4
20260905225831 25 135 0.0 0.0 0.00 0.00 0.00 83 1014.4
20260905225305 -17 0.0 0.0 0.00 0.00 0.00 1014.4
20260905223632 -17 0.0 0.0 0.00 0.00 0.00 1014.4
20260905221046 26 135 0.0 0.0 0.00 0.00 0.00 75 1014.4
20260905220532 -17 0.0 0.0 0.00 0.00 0.00 1014.4
20260905213001 -17 0.0 0.0 0.00 0.00 0.00 1014.4
20260905210331 -17 0.0 0.0 0.00 0.00 0.00 1015.2
20260905205001 30 135 0.0 0.0 0.00 0.00 0.00 63 1015.2
20260905204435 30 135 0.0 0.0 0.00 0.00 0.00 66 1015.2
20260905203929 -17 0.0 0.0 0.00 0.00 0.00 1015.2
20260905201801 28 135 0.0 0.0 0.00 0.00 0.00 69 1015.2
20260905201258 28 135 0.0 0.0 0.00 0.00 0.00 73 1015.2
20260905200428 26 135 0.0 0.0 0.00 0.00 0.00 80 1015.5
20260905192559 -17 0.0 0.0 0.00 0.00 0.00 1016.3
20260905190748 23 135 0.0 0.0 0.00 0.00 0.00 83 1016.6
20260905190229 -17 0.0 0.0 0.00 0.00 0.00 1016.6
20260905181444 26 135 0.0 0.0 0.00 0.00 0.00 75 1016.6
20260905180928 27 135 0.0 0.0 0.00 0.00 0.00 72 1016.3
20260905175559 -17 0.0 0.0 0.00 0.00 0.00 1016.6
20260905173859 29 135 0.0 0.0 0.00 0.00 0.00 75 1016.6
20260905172847 29 135 0.0 0.0 0.00 0.00 0.00 75 1016.6
20260905172344 29 135 0.0 0.0 0.00 0.00 0.00 76 1017.0
20260905171830 29 135 0.0 0.0 0.00 0.00 0.00 76 1017.0
20260905171325 28 135 0.0 0.0 0.00 0.00 0.00 78 1017.0
20260905170755 27 135 0.0 0.0 0.00 0.00 0.00 82 1017.0
20260905165925 26 135 0.0 0.0 0.00 0.00 0.00 84 1017.0
20260905165228 26 135 0.0 0.0 0.00 0.00 0.00 78 1017.0
20260905164057 26 135 0.0 0.0 0.00 0.00 0.00 78 1017.0
20260905163559 26 135 0.0 0.0 0.00 0.00 0.00 75 1017.0
20260905163055 28 135 0.0 0.0 0.00 0.00 0.00 72 1017.3
20260905162556 -17 0.0 0.0 0.00 0.00 0.00 1017.3
20260905160954 -17 0.0 0.0 0.00 0.00 0.00 1017.3
20260905155425 -17 0.0 0.0 0.00 0.00 0.00 1017.3
20260905151425 31 135 0.0 0.0 0.00 0.00 0.00 63 1017.0
20260905150925 -17 0.0 0.0 0.00 0.00 0.00 1017.0
20260905145325 31 135 0.0 0.0 0.00 0.00 0.00 70 1017.0
20260905143442 31 135 0.0 0.0 0.00 0.00 0.00 72 1017.0
20260905142934 31 135 0.0 0.0 0.00 0.00 0.00 73 1017.0
20260905142426 31 135 0.0 0.0 0.00 0.00 0.00 75 1017.0
20260905141924 -17 0.0 0.0 0.00 0.00 0.00 1017.0
20260905135321 27 135 0.0 0.0 0.00 0.00 0.00 92 1017.3
20260905134723 27 135 0.0 0.0 0.00 0.00 0.00 92 1017.3
20260905134221 25 135 0.0 0.0 0.00 0.00 0.00 97 1017.3
20260905133724 -17 0.0 0.0 0.00 0.00 0.00 1017.3
20260905132222 21 135 0.0 0.0 0.00 0.00 0.00 98 1017.8
20260905131312 21 135 0.0 0.0 0.00 0.00 0.00 98 1018.1
20260905130813 21 135 0.0 0.0 0.00 0.00 0.00 98 1018.1
20260905130752 21 67 0.0 0.0 0.00 0.00 0.00 98 1018.1
20260905124859 20 135 0.0 0.0 0.00 0.00 0.00 98 1018.1
20260905124337 20 135 0.0 0.0 0.00 0.00 0.00 98 1018.1
20260905123827 20 135 0.0 0.0 0.00 0.00 0.00 98 1018.1
20260905123321 20 135 0.0 0.0 0.00 0.00 0.00 98 1017.8
20260905122521 20 135 0.0 0.0 0.00 0.00 0.00 98 1018.1
20260905122020 20 135 0.0 0.0 0.00 0.00 0.00 98 1018.1
20260905121022 -17 0.0 0.0 0.00 0.00 0.00 1017.8
20260905115253 19 135 0.0 0.0 0.00 0.00 0.00 97 1017.8
20260905114210 19 135 0.0 0.0 0.00 0.00 0.00 97 1017.3
20260905113653 -17 0.0 0.0 0.00 0.00 0.00 1017.8
20260905111652 19 0.0 0.0 0.00 0.00 0.00 97 1017.3
20260905110220 19 135 0.0 0.0 0.00 0.00 0.00 97 1017.0
20260905104628 19 135 0.0 0.0 0.00 0.00 0.00 97 1017.0
20260905104121 20 135 0.0 0.0 0.00 0.00 0.00 97 1017.0
20260905103320 20 135 0.0 0.0 0.00 0.00 0.00 97 1016.6
20260905103051 -17 0.0 0.0 0.00 0.00 0.00 1016.6
20260905094720 20 135 0.0 0.0 0.00 0.00 0.00 96 1016.6
20260905094220 20 135 0.0 0.0 0.00 0.00 0.00 96 1016.3
20260905093151 -17 0.0 0.0 0.00 0.00 0.00 1016.6
20260905090648 20 135 0.0 0.0 0.00 0.00 0.00 96 1016.6
20260905085549 20 135 0.0 0.0 0.00 0.00 0.00 96 1016.6
20260905084632 20 135 0.0 0.0 0.00 0.00 0.00 96 1016.6
20260905084128 20 135 0.0 0.0 0.00 0.00 0.00 96 1017.0
20260905083625 20 135 0.0 0.0 0.00 0.00 0.00 96 1017.0
20260905083117 20 135 0.0 0.0 0.00 0.00 0.00 96 1017.0
20260905082517 20 135 0.0 0.0 0.00 0.00 0.00 96 1017.0
20260905081818 -17 0.0 0.0 0.00 0.00 0.00 1017.0
20260905075147 20 135 0.0 0.0 0.00 0.00 0.00 95 1017.0
20260905074647 20 135 0.0 0.0 0.00 0.00 0.00 95 1017.3
20260905073547 20 135 0.0 0.0 0.00 0.00 0.00 95 1017.3
20260905072749 -17 0.0 0.0 0.00 0.00 0.00 1017.3